CZ-3B R/B

Last updated on Sun Nov 10 2024 00:02:04 GMT+0000 (Coordinated Universal Time)

1 61504U 24181B 24314.10996269 .00254098 -24237-6 19174-2 0 9995 2 61504 28.3665 212.4234 7172625 198.0724 109.4073 2.47615922 728
UTC large
Height (km)
Speed (km/s)
/
Latitude / Longitude
Inclination (degrees)
Orbital Period (minutes)
Azimuth
Elevation
Range (km)
Doppler Factor

Next 0 passes for location: London (51.5072 / 0.1276)

Sorry there are no passes over London.